H1 CPF 2 NER 2021 3 15 9 074 01 glonass141 H2 1908801 9141 44850 2021 3 15 0 0 0 2021 3 18 23 45 0 900 1 1 0 0 0 1 H9 10 0 59288 0.00000 0 -12269604.918 16882379.968 14691579.346 10 0 59288 900.00000 0 -13513154.461 17970507.237 12070293.390 10 0 59288 1800.00000 0 -14417898.313 18928062.512 9214850.345 10 0 59288 2700.00000 0 -14991050.557 19696338.597 6180565.055 10 0 59288 3600.00000 0 -15252241.245 20221238.396 3026273.697 10 0 59288 4500.00000 0 -15232467.442 20455666.339 -186802.239 10 0 59288 5400.00000 0 -14972575.083 20361647.166 -3396242.988 10 0 59288 6300.00000 0 -14521335.177 19912081.322 -6539645.496 10 0 59288 7200.00000 0 -13933195.501 19092061.156 -9555842.237 10 0 59288 8100.00000 0 -13265803.014 17899690.466 -12386099.431 10 0 59288 9000.00000 0 -12577402.255 16346370.681 -14975270.466 10 0 59288 9900.00000 0 -11924220.560 14456539.644 -17272880.878 10 0 59288 10800.00000 0 -11357951.728 12266872.130 -19234122.798 10 0 59288 11700.00000 0 -10923445.698 9824974.140 -20820738.510 10 0 59288 12600.00000 0 -10656703.053 7187624.660 -22001775.079 10 0 59288 13500.00000 0 -10583260.246 4418637.745 -22754194.723 10 0 59288 14400.00000 0 -10717034.610 1586433.932 -23063328.652 10 0 59288 15300.00000 0 -11059678.672 -1238577.623 -22923165.248 10 0 59288 16200.00000 0 -11600471.404 -3986696.991 -22336466.962 10 0 59288 17100.00000 0 -12316751.156 -6591598.718 -21314713.690 10 0 59288 18000.00000 0 -13174871.834 -8992853.222 -19877873.953 10 0 59288 18900.00000 0 -14131641.617 -11138199.402 -18054008.665 10 0 59288 19800.00000 0 -15136182.874 -12985474.142 -15878715.581 10 0 59288 20700.00000 0 -16132134.048 -14504118.874 -13394425.836 10 0 59288 21600.00000 0 -17060099.761 -15676201.546 -10649566.907 10 0 59288 22500.00000 0 -17860244.864 -16496912.807 -7697608.993 10 0 59288 23400.00000 0 -18474922.173 -16974517.573 -4596014.320 10 0 59288 24300.00000 0 -18851222.375 -17129766.203 -1405110.622 10 0 59288 25200.00000 0 -18943338.113 -16994792.363 1813088.428 10 0 59288 26100.00000 0 -18714642.369 -16611546.161 4996092.098 10 0 59288 27000.00000 0 -18139393.679 -16029830.575 8082146.760 10 0 59288 27900.00000 0 -17203996.645 -15305025.570 11011431.516 10 0 59288 28800.00000 0 -15907765.232 -14495596.946 13727212.040 10 0 59288 29700.00000 0 -14263157.252 -13660495.534 16176930.731 10 0 59288 30600.00000 0 -12295470.548 -12856556.272 18313212.872 10 0 59288 31500.00000 0 -10042013.813 -12136006.175 20094770.318 10 0 59288 32400.00000 0 -7550786.431 -11544185.094 21487186.629 10 0 59288 33300.00000 0 -4878721.789 -11117573.879 22463569.874 10 0 59288 34200.00000 0 -2089566.161 -10882211.507 23005061.837 10 0 59288 35100.00000 0 748520.143 -10852566.439 23101195.019 10 0 59288 36000.00000 0 3565541.618 -11030908.720 22750091.402 10 0 59288 36900.00000 0 6292321.351 -11407208.713 21958499.592 10 0 59288 37800.00000 0 8863121.812 -11959566.776 20741669.600 10 0 59288 38700.00000 0 11218125.976 -12655156.437 19123067.166 10 0 59288 39600.00000 0 13305677.439 -13451642.498 17133932.225 10 0 59288 40500.00000 0 15084187.881 -14299015.813 14812688.765 10 0 59288 41400.00000 0 16523633.488 -15141769.075 12204215.995 10 0 59288 42300.00000 0 17606578.356 -15921323.421 9358993.450 10 0 59288 43200.00000 0 18328682.299 -16578604.763 6332135.151 10 0 59288 44100.00000 0 18698671.519 -17056661.909 3182330.326 10 0 59288 45000.00000 0 18737772.920 -17303216.125 -29289.516 10 0 59288 45900.00000 0 18478635.279 -17273034.035 -3240335.612 10 0 59288 46800.00000 0 17963782.227 -16930022.573 -6388376.076 10 0 59288 47700.00000 0 17243661.922 -16248955.943 -9412155.084 10 0 59288 48600.00000 0 16374375.659 -15216759.729 -12252792.654 10 0 59288 49500.00000 0 15415181.591 -13833295.792 -14854940.833 10 0 59288 50400.00000 0 14425879.518 -12111612.641 -17167872.598 10 0 59288 51300.00000 0 13464188.043 -10077648.672 -19146481.256 10 0 59288 52200.00000 0 12583225.791 -7769398.808 -20752169.940 10 0 59288 53100.00000 0 11829204.064 -5235578.099 -21953612.958 10 0 59288 54000.00000 0 11239429.251 -2533837.108 -22727373.601 10 0 59288 54900.00000 0 10840700.073 271396.986 -23058365.917 10 0 59288 55800.00000 0 10648167.802 3111363.664 -22940151.188 10 0 59288 56700.00000 0 10664707.784 5915594.857 -22375063.300 10 0 59288 57600.00000 0 10880828.715 8614613.708 -21374160.600 10 0 59288 58500.00000 0 11275123.109 11142593.582 -19957005.387 10 0 59288 59400.00000 0 11815239.358 13439866.469 -18151275.646 10 0 59288 60300.00000 0 12459333.462 15455176.368 -15992216.968 10 0 59288 61200.00000 0 13157938.133 17147583.960 -13521945.921 10 0 59288 62100.00000 0 13856169.228 18487943.922 -10788619.049 10 0 59288 63000.00000 0 14496175.184 19459894.287 -7845484.432 10 0 59288 63900.00000 0 15019724.887 20060317.997 -4749835.169 10 0 59288 64800.00000 0 15370823.778 20299259.245 -1561886.004 10 0 59288 65700.00000 0 15498246.948 20199300.233 1656404.221 10 0 59288 66600.00000 0 15357881.867 19794426.698 4842540.538 10 0 59288 67500.00000 0 14914781.713 19128432.003 7934706.288 10 0 59288 68400.00000 0 14144842.835 18252928.755 10872960.120 10 0 59288 69300.00000 0 13036035.983 17225052.979 13600392.332 10 0 59288 70200.00000 0 11589139.902 16104958.362 16064218.543 10 0 59288 71100.00000 0 9817946.773 14953206.186 18216790.326 10 0 59288 72000.00000 0 7748931.078 13828160.417 20016504.237 10 0 59288 72900.00000 0 5420395.576 12783496.539 21428593.006 10 0 59288 73800.00000 0 2881129.445 11865927.500 22425785.047 10 0 59288 74700.00000 0 188633.652 11113240.738 22988820.843 10 0 59288 75600.00000 0 -2593014.109 10552727.108 23106817.513 10 0 59288 76500.00000 0 -5395567.925 10200066.231 22777475.390 10 0 59288 77400.00000 0 -8149197.617 10058713.998 22007123.080 10 0 59288 78300.00000 0 -10785143.057 10119817.336 20810600.161 10 0 59288 79200.00000 0 -13238330.817 10362659.747 19210979.292 10 0 59288 80100.00000 0 -15449846.329 10755619.396 17239132.184 10 0 59288 81000.00000 0 -17369160.351 11257600.324 14933146.580 10 0 59288 81900.00000 0 -18956018.254 11819877.725 12337604.001 10 0 59288 82800.00000 0 -20181913.885 12388280.827 9502730.763 10 0 59288 83700.00000 0 -21031086.668 12905622.447 6483437.253 10 0 59288 84600.00000 0 -21500999.969 13314273.504 3338262.831 10 0 59288 85500.00000 0 -21602280.057 13558774.108 128246.082 10 0 59289 0.00000 0 -21358117.598 13588370.741 -3084258.105 10 0 59289 900.00000 0 -20803155.960 13359371.046 -6236792.057 10 0 59289 1800.00000 0 -19981912.922 12837216.561 -9268014.433 10 0 59289 2700.00000 0 -18946801.406 11998181.935 -12118901.785 10 0 59289 3600.00000 0 -17755833.152 10830628.916 -14733907.413 10 0 59289 4500.00000 0 -16470102.172 9335758.455 -17062054.098 10 0 59289 5400.00000 0 -15151154.773 7527827.629 -19057938.417 10 0 59289 6300.00000 0 -13858357.779 5433819.913 -20682626.097 10 0 59289 7200.00000 0 -12646376.761 3092580.943 -21904420.079 10 0 59289 8100.00000 0 -11562871.352 553454.514 -22699485.706 10 0 59289 9000.00000 0 -10646505.414 -2125525.162 -23052320.442 10 0 59289 9900.00000 0 -9925356.352 -4879809.885 -22956058.634 10 0 59289 10800.00000 0 -9415790.684 -7640792.054 -22412605.370 10 0 59289 11700.00000 0 -9121853.054 -10338435.030 -21432596.819 10 0 59289 12600.00000 0 -9035193.893 -12903969.328 -20035188.061 10 0 59289 13500.00000 0 -9135537.954 -15272542.108 -18247672.814 10 0 59289 14400.00000 0 -9391672.811 -17385709.357 -16104942.886 10 0 59289 15300.00000 0 -9762914.351 -19193666.826 -13648798.413 10 0 59289 16200.00000 0 -10200985.938 -20657126.991 -10927122.993 10 0 59289 17100.00000 0 -10652230.426 -21748764.377 -7992940.464 10 0 59289 18000.00000 0 -11060060.156 -22454169.848 -4903372.623 10 0 59289 18900.00000 0 -11367540.150 -22772275.461 -1718519.017 10 0 59289 19800.00000 0 -11519994.281 -22715233.856 1499718.567 10 0 59289 20700.00000 0 -11467523.572 -22307759.204 4688843.190 10 0 59289 21600.00000 0 -11167329.823 -21585959.410 7786977.448 10 0 59289 22500.00000 0 -10585746.367 -20595710.462 10734061.880 10 0 59289 23400.00000 0 -9699890.464 -19390642.800 13473013.748 10 0 59289 24300.00000 0 -8498868.026 -18029825.363 15950824.214 10 0 59289 25200.00000 0 -6984480.314 -16575245.109 18119573.377 10 0 59289 26100.00000 0 -5171403.152 -15089187.734 19937344.575 10 0 59289 27000.00000 0 -3086831.099 -13631628.824 21369021.580 10 0 59289 27900.00000 0 -769600.991 -12257743.593 22386954.743 10 0 59289 28800.00000 0 1731169.343 -11015638.089 22971484.551 10 0 59289 29700.00000 0 4357871.771 -9944395.137 23111313.722 10 0 59289 30600.00000 0 7046555.171 -9072515.142 22803721.591 10 0 59289 31500.00000 0 9729342.007 -8416815.591 22054617.101 10 0 59289 32400.00000 0 12337015.973 -7981834.186 20878429.423 10 0 59289 33300.00000 0 14801675.404 -7759759.974 19297837.850 10 0 59289 34200.00000 0 17059344.106 -7730895.242 17343345.277 10 0 59289 35100.00000 0 19052432.773 -7864629.073 15052702.273 10 0 59289 36000.00000 0 20731949.752 -8120882.356 12470191.387 10 0 59289 36900.00000 0 22059369.670 -8451964.337 9645784.054 10 0 59289 37800.00000 0 23008082.150 -8804763.420 6634184.969 10 0 59289 38700.00000 0 23564359.761 -9123180.535 3493781.200 10 0 59289 39600.00000 0 23727803.982 -9350702.785 285515.640 10 0 59289 40500.00000 0 23511249.629 -9433008.542 -2928293.839 10 0 59289 41400.00000 0 22940130.810 -9320493.276 -6085166.678 10 0 59289 42300.00000 0 22051334.182 -8970608.201 -9123679.327 10 0 59289 43200.00000 0 20891587.126 -8349911.236 -11984668.015 10 0 59289 44100.00000 0 19515448.294 -7435741.629 -14612390.267 10 0 59289 45000.00000 0 17982985.129 -6217445.314 -16955621.437 10 0 59289 45900.00000 0 16357236.422 -4697096.995 -18968663.898 10 0 59289 46800.00000 0 14701567.215 -2889686.303 -20612248.220 10 0 59289 47700.00000 0 13077028.099 -822758.181 -21854307.916 10 0 59289 48600.00000 0 11539830.677 1464479.123 -22670611.999 10 0 59289 49500.00000 0 10139045.954 3922542.415 -23045242.601 10 0 59289 50400.00000 0 8914622.893 6493501.024 -22970908.005 10 0 59289 51300.00000 0 7895810.532 9113167.475 -22449084.957 10 0 59289 52200.00000 0 7100049.765 11713560.110 -21489987.501 10 0 59289 53100.00000 0 6532380.829 14225534.646 -20112363.128 10 0 59289 54000.00000 0 6185390.449 16581474.680 -18343120.519 10 0 59289 54900.00000 0 6039699.577 18717928.587 -16216796.517 10 0 59289 55800.00000 0 6064969.662 20578082.476 -13774873.266 10 0 59289 56700.00000 0 6221383.283 22113965.972 -11064959.470 10 0 59289 57600.00000 0 6461534.877 23288298.966 -8139852.425 10 0 59289 58500.00000 0 6732649.994 24075902.684 -5056500.007 10 0 59289 59400.00000 0 6979037.666 24464617.086 -1874883.686 10 0 59289 60300.00000 0 7144670.877 24455687.565 1343154.872 10 0 59289 61200.00000 0 7175784.990 24063606.341 4535119.918 10 0 59289 62100.00000 0 7023383.613 23315417.024 7639076.480 10 0 59289 63000.00000 0 6645545.668 22249513.275 10594850.065 10 0 59289 63900.00000 0 6009436.310 20913983.555 13345187.858 10 0 59289 64800.00000 0 5092937.087 19364572.603 15836859.310 10 0 59289 65700.00000 0 3885826.991 17662345.839 18021675.578 10 0 59289 66600.00000 0 2390465.093 15871154.742 19857409.053 10 0 59289 67500.00000 0 621946.168 14055008.882 21308596.559 10 0 59289 68400.00000 0 -1392277.432 12275463.579 22347212.097 10 0 59289 69300.00000 0 -3613292.438 10589130.994 22953197.519 10 0 59289 70200.00000 0 -5992103.515 9045416.924 23114842.131 10 0 59289 71100.00000 0 -8471438.388 7684575.996 22829004.821 10 0 59289 72000.00000 0 -10987905.877 6536164.753 22101174.938 10 0 59289 72900.00000 0 -13474419.188 5617955.746 20945370.801 10 0 59289 73800.00000 0 -15862785.894 4935356.864 19383877.344 10 0 59289 74700.00000 0 -18086358.839 4481359.588 17446827.128 10 0 59289 75600.00000 0 -20082639.489 4237018.091 15171631.538 10 0 59289 76500.00000 0 -21795726.673 4172439.298 12602271.720 10 0 59289 77400.00000 0 -23178509.372 4248242.862 9788461.463 10 0 59289 78300.00000 0 -24194512.340 4417430.266 6784696.770 10 0 59289 79200.00000 0 -24819317.119 4627584.912 3649209.284 10 0 59289 80100.00000 0 -25041498.216 4823310.829 442843.028 10 0 59289 81000.00000 0 -24863034.192 4948807.039 -2772124.252 10 0 59289 81900.00000 0 -24299175.230 4950468.370 -5933192.348 10 0 59289 82800.00000 0 -23377771.527 4779401.884 -8978858.480 10 0 59289 83700.00000 0 -22138089.781 4393751.103 -11849821.445 10 0 59289 84600.00000 0 -20629166.718 3760727.971 -14490145.728 10 0 59289 85500.00000 0 -18907768.572 2858264.677 -16848361.752 10 0 59290 0.00000 0 -17036042.196 1676213.388 -18878479.814 10 0 59290 900.00000 0 -15078956.798 217040.607 -20540897.168 10 0 59290 1800.00000 0 -13101644.139 -1504013.819 -21803179.177 10 0 59290 2700.00000 0 -11166749.920 -3459323.788 -22640699.306 10 0 59290 3600.00000 0 -9331907.298 -5609793.280 -23037124.623 10 0 59290 4500.00000 0 -7647439.707 -7906265.952 -22984737.102 10 0 59290 5400.00000 0 -6154389.132 -10291369.175 -22484584.419 10 0 59290 6300.00000 0 -4882952.478 -12701715.885 -21546457.332 10 0 59290 7200.00000 0 -3851391.143 -15070372.097 -20188694.204 10 0 59290 8100.00000 0 -3065458.613 -17329486.781 -18437816.827 10 0 59290 9000.00000 0 -2518368.763 -19412973.873 -16328004.990 10 0 59290 9900.00000 0 -2191304.627 -21259133.850 -13900420.587 10 0 59290 10800.00000 0 -2054444.260 -22813105.080 -11202395.086 10 0 59290 11700.00000 0 -2068458.442 -24029042.302 -8286496.872 10 0 59290 12600.00000 0 -2186415.023 -24871931.276 -5209497.566 10 0 59290 13500.00000 0 -2356007.513 -25318964.216 -2031258.288 10 0 59290 14400.00000 0 -2522012.068 -25360419.288 1186441.603 10 0 59290 15300.00000 0 -2628867.597 -25000008.560 4381109.663 10 0 59290 16200.00000 0 -2623268.927 -24254681.282 7490755.393 10 0 59290 17100.00000 0 -2456662.791 -23153892.296 10455091.270 10 0 59290 18000.00000 0 -2087541.050 -21738367.720 13216696.324 10 0 59290 18900.00000 0 -1483434.465 -20058420.886 15722120.159 10 0 59290 19800.00000 0 -622523.274 -18171889.848 17922906.735 10 0 59290 20700.00000 0 505202.749 -16141783.175 19776519.098 10 0 59290 21600.00000 0 1897283.281 -14033732.157 21247148.514 10 0 59290 22500.00000 0 3538653.140 -11913355.060 22306393.805 10 0 59290 23400.00000 0 5402040.609 -9843642.149 22933799.099 10 0 59290 24300.00000 0 7448882.514 -7882468.852 23117240.932 10 0 59290 25200.00000 0 9630719.103 -6080338.815 22853158.128 10 0 59290 26100.00000 0 11891012.160 -4478449.041 22146620.561 10 0 59290 27000.00000 0 14167312.517 -3107155.968 21011235.573 10 0 59290 27900.00000 0 16393688.873 -1984904.953 19468893.391 10 0 59290 28800.00000 0 18503318.719 -1117666.838 17549355.639 10 0 59290 29700.00000 0 20431135.339 -498904.472 15289693.680 10 0 59290 30600.00000 0 22116422.031 -110070.382 12733586.130 10 0 59290 31500.00000 0 23505246.208 78385.069 9930487.704 10 0 59290 32400.00000 0 24552632.129 105537.035 6934683.971 10 0 59290 33300.00000 0 25224381.211 18102.691 3804249.068 10 0 59290 34200.00000 0 25498462.956 -131770.112 599925.759 10 0 59290 35100.00000 0 25365917.089 -288948.886 -2616050.987 10 0 59290 36000.00000 0 24831227.675 -397893.652 -5781164.143 10 0 59290 36900.00000 0 23912152.053 -405255.640 -8833834.604 10 0 59290 37800.00000 0 22639010.386 -262386.512 -11714626.630 10 0 59290 38700.00000 0 21053464.529 72349.522 -14367414.447 10 0 59290 39600.00000 0 19206836.682 631560.255 -16740486.161 10 0 59290 40500.00000 0 17158037.989 1437193.926 -18787562.477 10 0 59290 41400.00000 0 14971193.877 2499362.557 -20468709.386 10 0 59290 42300.00000 0 12713066.021 3815671.847 -21751126.104 10 0 59290 43200.00000 0 10450379.371 5371087.736 -22609792.273 10 0 59290 44100.00000 0 8247166.700 7138346.913 -23027961.314 10 0 59290 45000.00000 0 6162242.353 9078895.208 -22997489.981 10 0 59290 45900.00000 0 4246911.190 11144315.432 -22518997.620 10 0 59290 46800.00000 0 2543008.584 13278185.276 -21601852.019 10 0 59290 47700.00000 0 1081353.182 15418287.547 -20263982.303 10 0 59290 48600.00000 0 -119323.577 17499080.030 -18531522.817 10 0 59290 49500.00000 0 -1052927.574 19454321.213 -16438295.285 10 0 59290 50400.00000 0 -1726010.209 21219741.417 -14025139.914 10 0 59290 51300.00000 0 -2157236.339 22735647.025 -11339109.086 10 0 59290 52200.00000 0 -2376336.497 23949348.364 -8432540.056 10 0 59290 53100.00000 0 -2422589.744 24817309.356 -5362025.653 10 0 59290 54000.00000 0 -2342903.386 25306928.983 -2187303.856 10 0 59290 54900.00000 0 -2189572.663 25397880.398 1029911.271 10 0 59290 55800.00000 0 -2017816.761 25082952.293 4227133.676 10 0 59290 56700.00000 0 -1883196.638 24368358.377 7342320.465 10 0 59290 57600.00000 0 -1839024.693 23273503.216 10315074.151 10 0 59290 58500.00000 0 -1933876.132 21830215.542 13087808.592 10 0 59290 59400.00000 0 -2209307.133 20081482.307 15606856.355 10 0 59290 60300.00000 0 -2697875.753 18079737.242 17823496.827 10 0 59290 61200.00000 0 -3421548.478 15884775.980 19694886.112 10 0 59290 62100.00000 0 -4390558.935 13561384.662 21184872.088 10 0 59290 63000.00000 0 -5602766.382 11176780.306 22264680.272 10 0 59290 63900.00000 0 -7043540.801 8797968.498 22913458.643 10 0 59290 64800.00000 0 -8686179.782 6489126.810 23118672.161 10 0 59290 65700.00000 0 -10492840.609 4309120.939 22876340.364 10 0 59290 66600.00000 0 -12415949.865 2309254.961 22191113.957 10 0 59290 67500.00000 0 -14400033.409 531347.321 21076189.085 10 0 59290 68400.00000 0 -16383892.326 -993789.079 19553060.495 10 0 59290 69300.00000 0 -18303036.026 -2247400.736 17651117.562 10 0 59290 70200.00000 0 -20092272.899 -3223338.364 15407089.762 10 0 59290 71100.00000 0 -21688351.995 -3928070.463 12864350.857 10 0 59290 72000.00000 0 -23032546.419 -4380165.180 10072093.756 10 0 59290 72900.00000 0 -24073071.058 -4609262.038 7084390.543 10 0 59290 73800.00000 0 -24767233.369 -4654576.420 3959154.588 10 0 59290 74700.00000 0 -25083226.462 -4562999.359 757024.006 10 0 59290 75600.00000 0 -25001488.164 -4386872.560 -2459812.440 10 0 59290 76500.00000 0 -24515567.543 -4181532.629 -5628824.334 10 0 59290 77400.00000 0 -23632460.795 -4002728.654 -8688359.601 10 0 59290 78300.00000 0 -22372400.690 -3904023.192 -11578851.211 10 0 59290 79200.00000 0 -20768106.891 -3934287.758 -14243986.203 10 0 59290 80100.00000 0 -18863527.314 -4135400.299 -16631813.185 10 0 59290 81000.00000 0 -16712122.510 -4540243.772 -18695765.709 10 0 59290 81900.00000 0 -14374764.416 -5171092.302 -20395580.596 10 0 59290 82800.00000 0 -11917337.458 -6038454.942 -21698092.379 10 0 59290 83700.00000 0 -9408142.570 -7140427.588 -22577887.743 10 0 59290 84600.00000 0 -6915212.988 -8462581.953 -23017806.703 10 0 59290 85500.00000 0 -4503654.553 -9978397.487 -23009280.414 10 0 59291 0.00000 0 -2233121.881 -11650219.016 -22552498.939 10 0 59291 900.00000 0 -155536.073 -13430700.680 -21656405.573 10 0 59291 1800.00000 0 1686861.269 -15264675.059 -20338518.319 10 0 59291 2700.00000 0 3263035.908 -17091369.826 -18624581.801 10 0 59291 3600.00000 0 4554209.279 -18846877.883 -16548057.168 10 0 59291 4500.00000 0 5554383.508 -20466777.050 -14149460.236 10 0 59291 5400.00000 0 6270323.613 -21888788.728 -11475561.498 10 0 59291 6300.00000 0 6720999.567 -23055363.431 -8578464.245 10 0 59291 7200.00000 0 6936514.036 -23916084.190 -5514579.697 10 0 59291 8100.00000 0 6956563.325 -24429786.762 -2343519.959 10 0 59291 9000.00000 0 6828498.722 -24566307.755 873068.815 10 0 59291 9900.00000 0 6605072.046 -24307787.664 4072709.424 10 0 59291 10800.00000 0 6341962.323 -23649474.873 7193308.845 10 0 59291 11700.00000 0 6095189.234 -22599997.790 10174361.717 10 0 59291 12600.00000 0 5918523.310 -21181094.755 12958118.577 10 0 59291 13500.00000 0 5861002.427 -19426814.002 15490696.596 10 0 59291 14400.00000 0 5964659.152 -17382217.914 17723111.974 10 0 59291 15300.00000 0 6262554.220 -15101646.185 19612214.995 10 0 59291 16200.00000 0 6777198.216 -12646610.366 21121510.978 10 0 59291 17100.00000 0 7519427.215 -10083406.987 22221852.690 10 0 59291 18000.00000 0 8487779.098 -7480547.650 22891992.213 10 0 59291 18900.00000 0 9668396.580 -4906111.497 23118982.924 10 0 59291 19800.00000 0 11035461.417 -2425128.171 22898424.808 10 0 59291 20700.00000 0 12552142.367 -97098.107 22234548.917 10 0 59291 21600.00000 0 14172018.599 2026248.941 21140139.529 10 0 59291 22500.00000 0 15840920.699 3902865.897 19636295.081 10 0 59291 23400.00000 0 17499114.126 5501892.878 17752031.708 10 0 59291 24300.00000 0 19083735.732 6804692.835 15523735.875 10 0 59291 25200.00000 0 20531383.130 7805375.945 12994475.196 10 0 59291 26100.00000 0 21780749.804 8510791.137 10213179.302 10 0 59291 27000.00000 0 22775196.423 8939985.162 7233705.124 10 0 59291 27900.00000 0 23465150.749 9123151.711 4113803.384 10 0 59291 28800.00000 0 23810234.989 9100114.341 914005.460 10 0 59291 29700.00000 0 23781030.284 8918406.876 -2303548.356 10 0 59291 30600.00000 0 23360402.725 8631032.101 -5476316.640 10 0 59291 31500.00000 0 22544333.362 8293993.579 -8542576.792 10 0 59291 32400.00000 0 21342215.416 7963705.424 -11442632.902 10 0 59291 33300.00000 0 19776604.283 7694390.462 -14119987.154 10 0 59291 34200.00000 0 17882429.169 7535578.021 -16522450.846 10 0 59291 35100.00000 0 15705698.047 7529808.660 -18603172.410 10 0 59291 36000.00000 0 13301749.237 7710644.487 -20321561.356 10 0 59291 36900.00000 0 10733122.297 8101070.774 -21644089.226 10 0 59291 37800.00000 0 8067137.088 8712357.980 -22544951.267 10 0 59291 38700.00000 0 5373282.241 9543433.581 -23006575.408 10 0 59291 39600.00000 0 2720522.443 10580791.361 -23019968.273 10 0 59291 40500.00000 0 174637.181 11798942.828 -22584891.359 10 0 59291 41400.00000 0 -2204297.829 13161392.310 -21709863.947 10 0 59291 42300.00000 0 -4364181.350 14622094.836 -20411992.834 10 0 59291 43200.00000 0 -6262815.090 16127335.381 -18716632.469 10 0 59291 44100.00000 0 -7869410.102 17617950.059 -16656882.493 10 0 59291 45000.00000 0 -9165609.224 19031795.237 -14272932.988 10 0 59291 45900.00000 0 -10145984.404 20306360.040 -11611270.826 10 0 59291 46800.00000 0 -10817989.992 21381411.698 -8723763.286 10 0 59291 47700.00000 0 -11201376.185 22201561.758 -5666637.670 10 0 59291 48600.00000 0 -11327089.700 22718644.826 -2499377.691 10 0 59291 49500.00000 0 -11235710.351 22893809.568 716441.053 10 0 59291 50400.00000 0 -10975491.667 22699234.105 3918352.967 10 0 59291 51300.00000 0 -10600090.146 22119394.102 7044217.700 10 0 59291 52200.00000 0 -10166080.510 21151830.862 10033424.818 10 0 59291 53100.00000 0 -9730362.810 19807387.981 12828064.314 10 0 59291 54000.00000 0 -9347571.286 18109907.400 15374040.654 10 0 59291 54900.00000 0 -9067594.197 16095398.230 17622109.439 10 0 59291 55800.00000 0 -8933308.661 13810713.506 19528817.565 10 0 59291 56700.00000 0 -8978625.082 11311790.113 21057330.051 10 0 59291 57600.00000 0 -9226922.526 8661524.730 22178128.933 10 0 59291 58500.00000 0 -9689939.922 5927373.330 22869572.140 10 0 59291 59400.00000 0 -10367169.038 3178772.574 23118302.876 10 0 59291 60300.00000 0 -11245774.468 484488.404 22919502.592 10 0 59291 61200.00000 0 -12301044.260 -2090000.053 22276983.274 10 0 59291 62100.00000 0 -13497353.061 -4484974.812 21203117.423 10 0 59291 63000.00000 0 -14789598.688 -6648710.903 19718606.729 10 0 59291 63900.00000 0 -16125053.492 -8539374.757 17852093.135 10 0 59291 64800.00000 0 -17445554.701 -10126511.583 15639618.605 10 0 59291 65700.00000 0 -18689943.626 -11392060.817 13123942.641 10 0 59291 66600.00000 0 -19796652.880 -12330857.707 10353729.198 10 0 59291 67500.00000 0 -20706334.044 -12950600.298 7382617.295 10 0 59291 68400.00000 0 -21364415.921 -13271283.017 4268191.962 10 0 59291 69300.00000 0 -21723485.661 -13324120.279 1070874.595 10 0 59291 70200.00000 0 -21745391.855 -13150005.019 -2147246.380 10 0 59291 71100.00000 0 -21402979.791 -12797566.855 -5323621.997 10 0 59291 72000.00000 0 -20681384.051 -12320911.685 -8396462.632 10 0 59291 72900.00000 0 -19578822.076 -11777138.492 -11305946.970 10 0 59291 73800.00000 0 -18106853.125 -11223738.830 -13995395.702 10 0 59291 74700.00000 0 -16290089.809 -10715989.862 -16412386.001 10 0 59291 75600.00000 0 -14165372.452 -10304452.328 -18509784.050 10 0 59291 76500.00000 0 -11780439.473 -10032680.540 -20246674.512 10 0 59291 77400.00000 0 -9192148.496 -9935242.564 -21589167.871 10 0 59291 78300.00000 0 -6464321.955 -10036135.583 -22511069.248 10 0 59291 79200.00000 0 -3665306.967 -10347664.513 -22994395.129 10 0 59291 80100.00000 0 -865351.387 -10869832.192 -23029727.572 10 0 59291 81000.00000 0 1866094.297 -11590267.530 -22616398.858 10 0 59291 81900.00000 0 4463036.583 -12484695.073 -21762502.959 10 0 59291 82800.00000 0 6865448.964 -13517926.233 -20484733.743 10 0 59291 83700.00000 0 9021527.830 -14645330.185 -18808053.309 10 0 59291 84600.00000 0 10889600.559 -15814722.009 -16765197.278 10 0 59291 85500.00000 0 12439606.856 -16968587.768 -14396027.195 99